Weather in Lake District

United Kingdom     54°27′39″N   3°01′23″W
В апреле 2022 года жителям России запретили посещать сайт meteo.paraplan.net по решению Генеральной прокуратуры. Аудитория сайта уменьшилась в 10 раз. Владельцы сайта не видят смысла в поддержке погодного сервера в таких условиях. Сайт будет закрыт в октябре.
temp.,
°C
wind,
m/s
gust,
m/s
humid.,
%
clouds,
%
prec.,
mm/h
press.,
hPa
HPBL,
m
4 october, tue
tue401:00+11ssw61496100 0.0 1014855
04:00+11s61598100 0.0 1012753
07:00+11s71597100 0.0 1010955
10:00+13ssw61698100 4.5 10081091
13:00+14sw61397100 8.6 1008901
16:00+14sw2892100 1.9 1008660
19:00+12ssw2396100 2.1 100862
22:00+13ssw61298100 0.4 1005886
5 october, wed
wed501:00+13ssw71597100 2.2 10031024
04:00+13ssw91797100 0.9 9991197
07:00+14ssw132594100 4.6 9951624
10:00+9w51295100 2.8 999980
13:00+9wsw81493100 5.3 10021219
16:00+10wsw8128797 1.2 10051059
19:00+8w7138670 1.6 1009645
22:00+8w9158799 0.1 1013873
6 october, thu
thu601:00+8wsw91487100 0.3 10161087
04:00+8wsw9168725 0.1 1017867
07:00+9wsw91692100 0.1 10181084
10:00+10wsw10158893 0.1 10201042
13:00+12wsw9148654 0.3 10201145
16:00+12sw10148710 0.1 10201087
19:00+11sw8159262 0.3 1019914
22:00+12sw9169299 0.5 1017968
7 october, fri
fri701:00+11sw11179593 1.1 10161004
04:00+11sw10189395 0.2 10131092
07:00+11sw10179197 0.6 10111065
10:00+11sw121895100 1.2 10101386
13:00+11w10158719 8.4 10111264
16:00+9w9148543 0.6 10121200
19:00+8w7138512 0.8 1014718
22:00+8w814855 0.1 1016816
8 october, sat
sat801:00+8w8138699 0.2 1016876
04:00+8w7128675 0.1 1017818
07:00+8w61185100 0.3 1018752
10:00+9w598379 0.1 1019880
13:00+11wsw688196 0.3 1019916
16:00+11wsw367889 0.1 1019907
19:00+10sw3476100 0.1 1018131
22:00+8s349328 0.0 101888